Powrót do katalogu

STARLINK-6357

AktywnyŁącznośćVLEO
NORAD 56783·PAYLOAD·🇺🇸 United States

Wystrzelony May 31, 2023 z Vandenberg Space Force Base

Loading…

Następne Przeloty (najbliższe 24 godziny)

TLE

ŚwieżeSource: CelesTrak SupGP

Epoka: Sep 14, 2026, 22:01 UTC

1 56783C 23078S   26257.91784722  .00668980  00000+0  51690-1 0  2576
2 56783  70.0008 207.4116 0003075 266.9570 190.1334 15.01109625    19

Śledź STARLINK-6357 w czasie rzeczywistym z AllMySat

Download on the App Store